Regional Weather Roundup
Issued by NWS Sterling, VA

Home | Current Version | Previous Version | Graphics & Text | Print | Product List | Glossary On
Versions: 1 2 3 4 5 6 7 8 9 10 11 12 13 14 15 16 17 18 19 20 21 22 23 24 25 26 27 28 29 30 31 32 33 34 35 36 37 38 39 40 41 42 43 44 45 46 47 48 49 50
152
ASUS41 KLWX 222111
RWRLWX

REGIONAL WEATHER ROUNDUP
NATIONAL WEATHER SERVICE BALTIMORE MD/WASHINGTON DC
500 PM EDT FRI SEP 22 2017

Note: "FAIR" indicates few or no clouds below 12,000 feet
with no significant weather and/or obstructions to visibility.
 TC=TEMPERATURE CELSIUS

 * =Non NWS site. Station does not report precipitation (e.g. rain,
    snow, etc.), thunder, or fog.

DCZ001-MDZ009-015-VAZ040>042-051-053>054-222200-
WASHINGTON METRO

CITY           SKY/WX    TMP DP  RH WIND       PRES   REMARKS
WASHINGTON NAT CLOUDY    82  65  56 W10       29.99F
DULLES         CLOUDY    81  64  56 NW6       30.01F
ANDREWS AFB    PTSUNNY   80  62  54 N12       29.99F
FT BELVOIR     CLOUDY    81  63  54 N3        29.99F
QUANTICO       CLOUDY    83  65  54 N6        30.00F
COLLEGE PARK*  CLOUDY    80  63  56 NW7       29.99F
LEESBURG*      MOSUNNY   81  64  57 NW6       30.02F
MANASSAS*      CLOUDY    81  62  52 N10       30.01F
GAITHERSBURG*  CLOUDY    78  67  68 VRB3      30.02F

$$

MDZ006>007-011-014-222200-
BALTIMORE METRO

CITY           SKY/WX    TMP DP  RH WIND       PRES   REMARKS
BWI AIRPORT    CLOUDY    78  65  63 NW6       29.99S
MD SCIENCE CTR   N/A     81  62  52 MISG      29.99S
MARTIN STATE   PTSUNNY   79  66  65 W7        29.99F
ANNAPOLIS      CLOUDY    82  65  56 N8        29.98S
FORT MEADE*    CLOUDY    77  61  57 NW5       30.01F

$$

MDZ012-015-019>023-222200-
MARYLAND EASTERN SHORE

CITY           SKY/WX    TMP DP  RH WIND       PRES   REMARKS
OCEAN CITY     MOSUNNY   77  65  66 NW9       29.96F
SALISBURY      CLOUDY    78  66  66 NW10      29.96S
CAMBRIDGE*     SUNNY     81  66  61 NW10G16   29.97S
EASTON*        PTSUNNY   82  63  51 N10G18    30.01F

$$

MDZ017>025-222200-
SOUTHERN MARYLAND

CITY           SKY/WX    TMP DP  RH WIND       PRES   REMARKS
PATUXENT RIVER PTSUNNY   81  64  56 NW9       29.97F
ST INIGOES     CLOUDY    81  63  54 VRB3      29.97F
LEONARDTOWN*   CLOUDY    79  64  61 W3        29.99F

$$

MDZ003>005-222200-
NORTH CENTRAL MARYLAND

CITY           SKY/WX    TMP DP  RH WIND       PRES   REMARKS
FREDERICK*     SUNNY     82  64  54 CALM      30.03F
HAGERSTOWN APT MOSUNNY   86  60  41 NW9       30.01F
WESTMINSTER*   CLOUDY    81  64  57 N3        30.02F

$$

MDZ501>502-222200-
WESTERN MARYLAND

CITY           SKY/WX    TMP DP  RH WIND       PRES   REMARKS
OAKLAND*       SUNNY     73  57  56 NW3       30.15S
CUMBERLAND*    MOSUNNY   90  50  25 N8        30.07S

$$

VAZ025>031-222200-
SHENANDOAH VALLEY

CITY           SKY/WX    TMP DP  RH WIND       PRES   REMARKS
WINCHESTER*    CLOUDY    79  63  57 CALM      30.03F
FRONT ROYAL*   CLOUDY    81  61  50 CALM      30.03S
LURAY*         MOSUNNY   84  59  42 NE5       30.03F
NEW MARKET*    MOSUNNY   84  58  40 E5        30.02S
STAUNTON*      PTSUNNY   82  60  46 CALM      30.06F
WAYNESBORO*    CLOUDY    82  62  51 CALM      30.07S

$$

WVZ021-048>050-054>055-222200-
EASTERN WEST VIRGINIA PANHANDLE

CITY           SKY/WX    TMP DP  RH WIND       PRES   REMARKS
MARTINSBURG    CLOUDY    79  65  62 CALM      30.01F
PETERSBURG*    CLOUDY    87  60  40 CALM      30.04F

$$

VAZ036>039-050-222200-
CENTRAL FOOTHILLS

CITY           SKY/WX    TMP DP  RH WIND       PRES   REMARKS
CHARLOTTESVILL CLOUDY    85  64  49 E6        30.01F
CULPEPER*      MOSUNNY   83  66  56 NE6       30.01F
ORANGE*        MOSUNNY   82  64  54 CALM      30.01F
GORDONSVILLE*  MOSUNNY   82  67  60 CALM      30.01F
WARRENTON*     MOSUNNY   83  60  45 N9        30.01F

$$

VAZ055>057-222200-
NORTH AND CENTRAL PIEDMONT

CITY           SKY/WX    TMP DP  RH WIND       PRES   REMARKS
FREDERICKSBRG* MOSUNNY   83  66  56 N8        29.99S
STAFFORD*      MOSUNNY   81  64  55 N8        30.04S

$$

NCZ024-NYZ072-PAZ021-071-VAZ022-071-222200-
OTHER REGIONAL OBSERVATIONS

CITY           SKY/WX    TMP DP  RH WIND       PRES   REMARKS
NEW YORK CITY  MOSUNNY   80  55  42 NE8G23    29.97F
PHILADELPHIA   PTSUNNY   82  56  40 N12       29.95S
PITTSBURGH     PTSUNNY   86  55  34 VRB6      30.08F
ROANOKE        PTSUNNY   86  55  34 SE3       30.06F
RICHMOND       CLOUDY    81  65  58 N8        30.00F
RALEIGH        MOSUNNY   86  63  45 NE6       30.00F

$$

ANZ530>537-222200-
MARINE OBSERVATIONS

STATION/POSITION TIME  TEMP    WIND        PRES
                       AIR SEA DIR/SP/G
                 (UTC) (F)     (DEG/KT/KT) (MB)
THOMAS PT LIGHT  2100   78 76   20/ 10/ 11   N/A
BALT KEY BRIDGE  2042   79     330/  8/  9 1015.2F
COVE POINT       2042   77     350/  8/  9 1015.6F
LEWISETTA        2042   80 77  310/ 10/ 12 1014.9F
SOLOMONS ISLAND  2042   80 77  310/  6/  8 1014.5F
PINEY POINT      2048          320/ 13/ 15   N/A

$$





USA.gov is the U.S. government's official web portal to all federal, state and local government web resources and services.